Time,TemperatureF,DewpointF,PressureIn,WindDirection,WindDirectionDegrees,WindSpeedMPH,WindSpeedGustMPH,Humidity,HourlyPrecipIn,Conditions,Clouds,dailyrainin,SoftwareType,DateUTC
2013-01-09 00:02:00,31.2,29.0,30.23,WSW,248,0.0,0.0,92,0.00,,,0.00,weatherlink.com 1.10,2013-01-09 05:02:00,
2013-01-09 00:17:00,31.5,30.0,30.23,WSW,248,0.0,0.0,92,0.00,,,0.00,weatherlink.com 1.10,2013-01-09 05:17:00,
2013-01-09 00:32:00,31.8,30.0,30.24,WSW,248,0.0,0.0,92,0.00,,,0.00,weatherlink.com 1.10,2013-01-09 05:32:00,
2013-01-09 00:47:00,32.0,30.0,30.23,WSW,248,0.0,0.0,92,0.00,,,0.00,weatherlink.com 1.10,2013-01-09 05:47:00,
2013-01-09 01:02:00,32.5,31.0,30.23,WSW,248,0.0,0.0,92,0.00,,,0.00,weatherlink.com 1.10,2013-01-09 06:02:00,
2013-01-09 01:17:00,32.9,31.0,30.23,WSW,248,0.0,0.0,92,0.00,,,0.00,weatherlink.com 1.10,2013-01-09 06:17:00,
2013-01-09 02:16:00,34.4,32.0,30.25,WSW,248,0.0,0.0,92,0.00,,,0.00,weatherlink.com 1.10,2013-01-09 07:16:00,
2013-01-09 02:17:00,34.4,32.0,30.25,WSW,248,0.0,0.0,92,0.00,,,0.00,weatherlink.com 1.10,2013-01-09 07:17:00,
2013-01-09 02:32:00,34.7,33.0,30.25,WSW,248,0.0,0.0,92,0.00,,,0.00,weatherlink.com 1.10,2013-01-09 07:32:00,
2013-01-09 02:47:00,35.3,33.0,30.24,WSW,248,0.0,0.0,92,0.00,,,0.00,weatherlink.com 1.10,2013-01-09 07:47:00,
2013-01-09 03:02:00,35.9,34.0,30.25,WSW,248,0.0,0.0,91,0.00,,,0.00,weatherlink.com 1.10,2013-01-09 08:02:00,
2013-01-09 03:17:00,36.1,34.0,30.25,WSW,248,0.0,0.0,91,0.00,,,0.00,weatherlink.com 1.10,2013-01-09 08:17:00,
2013-01-09 03:33:00,36.7,34.0,30.26,WSW,248,0.0,0.0,91,0.00,,,0.00,weatherlink.com 1.10,2013-01-09 08:33:00,
2013-01-09 03:48:00,36.9,34.0,30.26,WSW,248,0.0,0.0,90,0.00,,,0.00,weatherlink.com 1.10,2013-01-09 08:48:00,
2013-01-09 04:03:00,37.4,35.0,30.26,WSW,248,0.0,0.0,90,0.00,,,0.00,weatherlink.com 1.10,2013-01-09 09:03:00,
2013-01-09 04:18:00,38.0,35.0,30.25,WSW,248,0.0,0.0,89,0.00,,,0.00,weatherlink.com 1.10,2013-01-09 09:18:00,
2013-01-09 04:33:00,38.5,36.0,30.26,WSW,248,0.0,0.0,89,0.00,,,0.00,weatherlink.com 1.10,2013-01-09 09:33:00,
2013-01-09 04:48:00,38.8,36.0,30.26,WSW,250,0.0,1.0,88,0.00,,,0.00,weatherlink.com 1.10,2013-01-09 09:48:00,
2013-01-09 05:03:00,39.2,37.0,30.27,WSW,250,0.0,1.0,90,0.00,,,0.00,weatherlink.com 1.10,2013-01-09 10:03:00,
2013-01-09 05:18:00,40.1,37.0,30.27,West,273,0.0,2.0,89,0.00,,,0.00,weatherlink.com 1.10,2013-01-09 10:18:00,
2013-01-09 05:33:00,44.1,40.0,30.29,WSW,256,8.0,11.0,86,0.00,,,0.00,weatherlink.com 1.10,2013-01-09 10:33:00,
2013-01-09 05:48:00,44.8,41.0,30.30,WSW,257,4.0,11.0,86,0.00,,,0.00,weatherlink.com 1.10,2013-01-09 10:48:00,
2013-01-09 06:03:00,43.9,41.0,30.30,SW,236,2.0,8.0,90,0.00,,,0.00,weatherlink.com 1.10,2013-01-09 11:03:00,
2013-01-09 06:18:00,43.1,41.0,30.31,SW,229,2.0,6.0,91,0.00,,,0.00,weatherlink.com 1.10,2013-01-09 11:18:00,
2013-01-09 06:33:00,42.7,41.0,30.31,SSW,210,2.0,7.0,94,0.00,,,0.00,weatherlink.com 1.10,2013-01-09 11:33:00,
2013-01-09 06:48:00,42.2,41.0,30.32,SW,234,2.0,5.0,94,0.00,,,0.00,weatherlink.com 1.10,2013-01-09 11:48:00,
2013-01-09 07:03:00,42.0,40.0,30.32,SW,225,2.0,4.0,94,0.00,,,0.00,weatherlink.com 1.10,2013-01-09 12:03:00,
2013-01-09 07:18:00,41.7,40.0,30.33,South,182,1.0,3.0,95,0.00,,,0.00,weatherlink.com 1.10,2013-01-09 12:18:00,
2013-01-09 07:33:00,41.7,40.0,30.33,WSW,238,1.0,3.0,95,0.00,,,0.00,weatherlink.com 1.10,2013-01-09 12:33:00,
2013-01-09 07:48:00,41.6,40.0,30.33,SSW,211,0.0,1.0,95,0.00,,,0.00,weatherlink.com 1.10,2013-01-09 12:48:00,
2013-01-09 08:03:00,41.5,40.0,30.34,WSW,238,0.0,2.0,95,0.00,,,0.00,weatherlink.com 1.10,2013-01-09 13:03:00,
2013-01-09 08:18:00,41.0,40.0,30.35,WSW,240,0.0,2.0,95,0.00,,,0.00,weatherlink.com 1.10,2013-01-09 13:18:00,
2013-01-09 08:33:00,40.4,39.0,30.35,WSW,240,0.0,1.0,95,0.00,,,0.00,weatherlink.com 1.10,2013-01-09 13:33:00,
2013-01-09 08:48:00,39.9,39.0,30.35,SSE,159,0.0,0.0,96,0.00,,,0.00,weatherlink.com 1.10,2013-01-09 13:48:00,
2013-01-09 09:03:00,40.2,39.0,30.36,SSE,159,0.0,0.0,96,0.00,,,0.00,weatherlink.com 1.10,2013-01-09 14:03:00,
2013-01-09 09:18:00,40.2,39.0,30.37,SSE,159,0.0,0.0,96,0.00,,,0.00,weatherlink.com 1.10,2013-01-09 14:18:00,
2013-01-09 09:33:00,40.1,39.0,30.38,SSE,159,0.0,0.0,96,0.00,,,0.00,weatherlink.com 1.10,2013-01-09 14:33:00,
2013-01-09 09:48:00,40.5,40.0,30.37,SSE,159,0.0,0.0,96,0.00,,,0.00,weatherlink.com 1.10,2013-01-09 14:48:00,
2013-01-09 10:03:00,41.4,41.0,30.37,SSE,159,0.0,0.0,97,0.00,,,0.00,weatherlink.com 1.10,2013-01-09 15:03:00,
2013-01-09 10:18:00,41.9,41.0,30.38,South,173,1.0,3.0,97,0.00,,,0.00,weatherlink.com 1.10,2013-01-09 15:18:00,
2013-01-09 10:33:00,43.3,43.0,30.39,South,180,2.0,4.0,97,0.00,,,0.00,weatherlink.com 1.10,2013-01-09 15:33:00,
2013-01-09 10:48:00,44.5,44.0,30.39,South,189,1.0,4.0,97,0.00,,,0.00,weatherlink.com 1.10,2013-01-09 15:48:00,
2013-01-09 11:03:00,45.7,45.0,30.40,SSW,207,1.0,4.0,96,0.00,,,0.00,weatherlink.com 1.10,2013-01-09 16:03:00,
2013-01-09 11:18:00,46.5,45.0,30.40,South,188,1.0,4.0,94,0.00,,,0.00,weatherlink.com 1.10,2013-01-09 16:18:00,
2013-01-09 11:33:00,48.0,46.0,30.40,SSW,210,3.0,5.0,91,0.00,,,0.00,weatherlink.com 1.10,2013-01-09 16:33:00,
2013-01-09 11:49:00,49.1,46.0,30.39,SSE,163,4.0,5.0,88,0.00,,,0.00,weatherlink.com 1.10,2013-01-09 16:49:00,
2013-01-09 12:04:00,49.8,46.0,30.39,South,169,4.0,8.0,86,0.00,,,0.00,weatherlink.com 1.10,2013-01-09 17:04:00,
2013-01-09 12:19:00,50.5,46.0,30.38,WSW,241,2.0,7.0,83,0.00,,,0.00,weatherlink.com 1.10,2013-01-09 17:19:00,
2013-01-09 12:34:00,51.2,46.0,30.37,SW,221,2.0,6.0,83,0.00,,,0.00,weatherlink.com 1.10,2013-01-09 17:34:00,
2013-01-09 12:49:00,51.2,46.0,30.36,WSW,238,5.0,7.0,81,0.00,,,0.00,weatherlink.com 1.10,2013-01-09 17:49:00,
2013-01-09 13:04:00,52.0,46.0,30.36,SW,234,1.0,6.0,80,0.00,,,0.00,weatherlink.com 1.10,2013-01-09 18:04:00,
2013-01-09 13:19:00,52.4,46.0,30.36,SW,231,3.0,8.0,78,0.00,,,0.00,weatherlink.com 1.10,2013-01-09 18:19:00,
2013-01-09 13:34:00,53.3,46.0,30.36,West,267,2.0,4.0,77,0.00,,,0.00,weatherlink.com 1.10,2013-01-09 18:34:00,
2013-01-09 13:49:00,53.9,45.0,30.36,West,269,2.0,8.0,73,0.00,,,0.00,weatherlink.com 1.10,2013-01-09 18:49:00,
2013-01-09 14:04:00,54.3,46.0,30.36,WSW,243,5.0,6.0,74,0.00,,,0.00,weatherlink.com 1.10,2013-01-09 19:04:00,
2013-01-09 14:19:00,54.1,45.0,30.37,WSW,237,3.0,7.0,70,0.00,,,0.00,weatherlink.com 1.10,2013-01-09 19:19:00,
2013-01-09 14:34:00,54.2,45.0,30.38,West,261,4.0,8.0,70,0.00,,,0.00,weatherlink.com 1.10,2013-01-09 19:34:00,
2013-01-09 14:49:00,54.9,44.0,30.38,West,272,0.0,5.0,68,0.00,,,0.00,weatherlink.com 1.10,2013-01-09 19:49:00,
2013-01-09 15:04:00,53.6,43.0,30.39,West,272,3.0,10.0,68,0.00,,,0.00,weatherlink.com 1.10,2013-01-09 20:04:00,
2013-01-09 15:34:00,52.4,44.0,30.39,WSW,252,4.0,6.0,72,0.00,,,0.00,weatherlink.com 1.10,2013-01-09 20:34:00,
2013-01-09 15:49:00,52.5,44.0,30.40,WSW,247,3.0,6.0,72,0.00,,,0.00,weatherlink.com 1.10,2013-01-09 20:49:00,
2013-01-09 16:04:00,52.4,43.0,30.41,SW,227,5.0,5.0,70,0.00,,,0.00,weatherlink.com 1.10,2013-01-09 21:04:00,
2013-01-09 16:19:00,52.9,43.0,30.41,SW,229,2.0,5.0,69,0.00,,,0.00,weatherlink.com 1.10,2013-01-09 21:19:00,
2013-01-09 16:34:00,52.8,43.0,30.41,WSW,247,3.0,5.0,70,0.00,,,0.00,weatherlink.com 1.10,2013-01-09 21:34:00,
2013-01-09 16:49:00,52.1,43.0,30.41,WSW,251,0.0,1.0,70,0.00,,,0.00,weatherlink.com 1.10,2013-01-09 21:49:00,
2013-01-09 17:04:00,51.8,43.0,30.42,WSW,251,0.0,0.0,71,0.00,,,0.00,weatherlink.com 1.10,2013-01-09 22:04:00,
2013-01-09 17:19:00,48.7,41.0,30.42,WSW,251,0.0,2.0,75,0.00,,,0.00,weatherlink.com 1.10,2013-01-09 22:19:00,
2013-01-09 17:34:00,46.2,40.0,30.42,WSW,251,0.0,1.0,78,0.00,,,0.00,weatherlink.com 1.10,2013-01-09 22:34:00,
2013-01-09 17:49:00,44.2,39.0,30.43,WSW,251,0.0,0.0,81,0.00,,,0.00,weatherlink.com 1.10,2013-01-09 22:49:00,
2013-01-09 18:04:00,42.4,38.0,30.43,WSW,251,0.0,0.0,84,0.00,,,0.00,weatherlink.com 1.10,2013-01-09 23:04:00,
2013-01-09 18:19:00,40.7,37.0,30.43,North,351,2.0,4.0,85,0.00,,,0.00,weatherlink.com 1.10,2013-01-09 23:19:00,
2013-01-09 18:34:00,39.4,36.0,30.44,North,351,0.0,0.0,87,0.00,,,0.00,weatherlink.com 1.10,2013-01-09 23:34:00,
2013-01-09 18:49:00,38.4,36.0,30.45,North,351,0.0,2.0,89,0.00,,,0.00,weatherlink.com 1.10,2013-01-09 23:49:00,
2013-01-09 19:04:00,37.4,35.0,30.45,North,351,0.0,0.0,91,0.00,,,0.00,weatherlink.com 1.10,2013-01-10 00:04:00,
2013-01-09 19:19:00,36.9,35.0,30.46,North,351,0.0,2.0,91,0.00,,,0.00,weatherlink.com 1.10,2013-01-10 00:19:00,
2013-01-09 19:34:00,36.2,34.0,30.47,North,351,0.0,0.0,91,0.00,,,0.00,weatherlink.com 1.10,2013-01-10 00:34:00,
2013-01-09 19:49:00,35.4,33.0,30.47,North,351,0.0,0.0,91,0.00,,,0.00,weatherlink.com 1.10,2013-01-10 00:49:00,
2013-01-09 20:04:00,34.9,33.0,30.48,North,351,0.0,0.0,92,0.00,,,0.00,weatherlink.com 1.10,2013-01-10 01:04:00,
2013-01-09 20:19:00,34.7,33.0,30.48,North,351,0.0,0.0,93,0.00,,,0.00,weatherlink.com 1.10,2013-01-10 01:19:00,
2013-01-09 20:34:00,34.2,32.0,30.49,North,351,0.0,0.0,93,0.00,,,0.00,weatherlink.com 1.10,2013-01-10 01:34:00,
2013-01-09 20:49:00,33.8,32.0,30.49,North,351,0.0,0.0,93,0.00,,,0.00,weatherlink.com 1.10,2013-01-10 01:49:00,
2013-01-09 21:04:00,33.4,32.0,30.49,North,351,0.0,0.0,93,0.00,,,0.00,weatherlink.com 1.10,2013-01-10 02:04:00,
2013-01-09 21:19:00,32.8,31.0,30.49,North,351,0.0,0.0,93,0.00,,,0.00,weatherlink.com 1.10,2013-01-10 02:19:00,
2013-01-09 21:35:00,32.9,31.0,30.49,North,351,0.0,0.0,94,0.00,,,0.00,weatherlink.com 1.10,2013-01-10 02:35:00,
2013-01-09 21:50:00,32.5,31.0,30.49,North,351,0.0,0.0,94,0.00,,,0.00,weatherlink.com 1.10,2013-01-10 02:50:00,
2013-01-09 22:05:00,32.4,31.0,30.49,North,351,0.0,0.0,94,0.00,,,0.00,weatherlink.com 1.10,2013-01-10 03:05:00,
2013-01-09 22:20:00,32.2,31.0,30.49,North,351,0.0,0.0,95,0.00,,,0.00,weatherlink.com 1.10,2013-01-10 03:20:00,
2013-01-09 22:35:00,31.9,31.0,30.50,North,351,0.0,0.0,95,0.00,,,0.00,weatherlink.com 1.10,2013-01-10 03:35:00,
2013-01-09 22:50:00,31.9,31.0,30.50,North,351,0.0,0.0,95,0.00,,,0.00,weatherlink.com 1.10,2013-01-10 03:50:00,
2013-01-09 23:05:00,31.6,30.0,30.50,North,351,0.0,0.0,94,0.00,,,0.00,weatherlink.com 1.10,2013-01-10 04:05:00,
2013-01-09 23:20:00,31.9,31.0,30.51,North,351,0.0,0.0,95,0.00,,,0.00,weatherlink.com 1.10,2013-01-10 04:20:00,
2013-01-09 23:50:00,31.8,31.0,30.51,North,351,0.0,0.0,95,0.00,,,0.00,weatherlink.com 1.10,2013-01-10 04:50:00,